DEZAH EDHI-EDHI

Flight info

Callsign DEZAH
Flight time 0h 5m
Altitude
Route
Aircraft DA40

Departure

Time 2026-04-22 13:06
Airport Hamburg-Finkenwerder Airport (EDHI)

Arrival

Time 2026-04-22 13:11
Airport Hamburg-Finkenwerder Airport (EDHI)
Time Latitude Longitude Altitude Speed Heading
2026-04-22 12:59 53.53861 9.83719 17 ft 0 kts 142°
2026-04-22 13:03 53.53861 9.83689 17 ft 12 kts 302°
2026-04-22 13:03 53.53826 9.83625 17 ft 11 kts 155°
2026-04-22 13:04 53.53751 9.83677 16 ft 12 kts 159°
2026-04-22 13:04 53.53740 9.83684 16 ft 0 kts 158°
2026-04-22 13:04 53.53737 9.83686 16 ft 8 kts 158°
2026-04-22 13:04 53.53629 9.83752 14 ft 13 kts 169°
2026-04-22 13:05 53.53605 9.83709 14 ft 0 kts 228°
2026-04-22 13:05 53.53544 9.83576 14 ft 43 kts 230°
2026-04-22 13:05 53.53298 9.83049 99 ft 67 kts 237°
2026-04-22 13:06 53.52974 9.82406 259 ft 73 kts 238°
2026-04-22 13:06 53.52675 9.81704 486 ft 74 kts 242°
2026-04-22 13:06 53.52254 9.81139 631 ft 86 kts 197°
2026-04-22 13:06 53.51635 9.81337 705 ft 95 kts 168°
2026-04-22 13:07 53.50991 9.81670 794 ft 97 kts 170°
2026-04-22 13:07 53.50321 9.82013 935 ft 102 kts 165°
2026-04-22 13:07 53.49822 9.82791 1073 ft 102 kts 103°
2026-04-22 13:07 53.49924 9.83972 1088 ft 107 kts 62°
2026-04-22 13:08 53.50226 9.85088 1190 ft 103 kts 59°
2026-04-22 13:08 53.50579 9.86126 1287 ft 102 kts 52°
2026-04-22 13:08 53.50937 9.87120 1413 ft 98 kts 53°
2026-04-22 13:08 53.51294 9.88086 1510 ft 101 kts 52°
2026-04-22 13:09 53.51678 9.89114 1522 ft 106 kts 52°
2026-04-22 13:09 53.52206 9.89910 1550 ft 104 kts
2026-04-22 13:09 53.52841 9.89495 1447 ft 108 kts 314°
2026-04-22 13:09 53.53330 9.88569 1129 ft 99 kts 315°
2026-04-22 13:10 53.53771 9.87787 762 ft 87 kts 313°
2026-04-22 13:10 53.54194 9.87086 479 ft 85 kts 314°
2026-04-22 13:10 53.54496 9.86292 263 ft 78 kts 280°
2026-04-22 13:10 53.54404 9.85459 103 ft 68 kts 243°
2026-04-22 13:11 53.54141 9.84873 38 ft 64 kts 239°
2026-04-22 13:11 53.53868 9.84288 29 ft 61 kts 240°
2026-04-22 13:11 53.53656 9.83827 14 ft 37 kts 238°
2026-04-22 13:11 53.53411 9.83323 38 ft 73 kts 237°
2026-04-22 13:12 53.53091 9.82631 248 ft 76 kts 240°
2026-04-22 13:12 53.52747 9.81896 432 ft 84 kts 236°
2026-04-22 13:12 53.52361 9.81109 570 ft 87 kts 236°
2026-04-22 13:12 53.51984 9.80343 593 ft 85 kts 237°
2026-04-22 13:13 53.51589 9.79614 751 ft 88 kts 218°
2026-04-22 13:13 53.50931 9.79606 830 ft 107 kts 159°
2026-04-22 13:13 53.50263 9.80146 998 ft 105 kts 154°
2026-04-22 13:13 53.49612 9.80736 1140 ft 107 kts 148°
2026-04-22 13:14 53.49067 9.81538 1328 ft 104 kts 127°
2026-04-22 13:14 53.48827 9.82644 1428 ft 103 kts 84°
2026-04-22 13:14 53.49032 9.83778 1500 ft 99 kts 63°
2026-04-22 13:14 53.49280 9.84843 1663 ft 101 kts 62°
2026-04-22 13:15 53.49563 9.85888 1888 ft 94 kts 50°
2026-04-22 13:15 53.49939 9.86808 1999 ft 94 kts 48°
2026-04-22 13:15 53.50319 9.87744 2061 ft 97 kts 49°
2026-04-22 13:15 53.50733 9.88675 2061 ft 103 kts 49°
2026-04-22 13:16 53.51197 9.89643 2089 ft 111 kts 45°
2026-04-22 13:16 53.51691 9.90670 2085 ft 114 kts 45°
2026-04-22 13:16 53.52224 9.91602 2000 ft 103 kts 29°
2026-04-22 13:16 53.52854 9.91715 1902 ft 92 kts 333°
2026-04-22 13:17 53.53383 9.91062 1710 ft 95 kts 321°
2026-04-22 13:17 53.53903 9.90325 1430 ft 101 kts 321°
2026-04-22 13:17 53.54398 9.89587 1349 ft 93 kts 317°
2026-04-22 13:17 53.54850 9.88829 1251 ft 91 kts 314°
2026-04-22 13:18 53.55221 9.88017 1181 ft 86 kts 289°
2026-04-22 13:18 53.55062 9.86976 798 ft 97 kts 250°
2026-04-22 13:18 53.54711 9.86058 413 ft 92 kts 236°
2026-04-22 13:18 53.54346 9.85273 171 ft 73 kts 235°
2026-04-22 13:19 53.54059 9.84680 53 ft 65 kts 237°
2026-04-22 13:19 53.53819 9.84163 25 ft 51 kts 238°
2026-04-22 13:19 53.53640 9.83772 14 ft 50 kts 231°
2026-04-22 13:19 53.53346 9.83164 88 ft 75 kts 239°
2026-04-22 13:20 53.53026 9.82446 283 ft 78 kts 239°
2026-04-22 13:20 53.52713 9.81665 472 ft 86 kts 240°
2026-04-22 13:20 53.52362 9.80826 675 ft 87 kts 230°
2026-04-22 13:20 53.51795 9.80521 810 ft 96 kts 180°
2026-04-22 13:21 53.51089 9.80839 859 ft 109 kts 165°
2026-04-22 13:21 53.50386 9.81239 1028 ft 103 kts 163°
2026-04-22 13:21 53.49727 9.81713 1161 ft 106 kts 145°
2026-04-22 13:21 53.49304 9.82717 1299 ft 107 kts 100°
2026-04-22 13:22 53.49408 9.83935 1318 ft 106 kts 66°
2026-04-22 13:22 53.49641 9.85054 1480 ft 99 kts 60°
2026-04-22 13:22 53.49947 9.86070 1585 ft 101 kts 57°
2026-04-22 13:22 53.50285 9.87074 1676 ft 101 kts 55°
2026-04-22 13:23 53.50706 9.88067 1653 ft 105 kts 46°
2026-04-22 13:23 53.51199 9.89016 1675 ft 111 kts 43°
2026-04-22 13:23 53.51733 9.89991 1621 ft 115 kts 40°
2026-04-22 13:23 53.52375 9.90436 1709 ft 93 kts 348°
2026-04-22 13:24 53.53000 9.89846 1477 ft 112 kts 324°
2026-04-22 13:24 53.53601 9.89023 1317 ft 108 kts 320°
2026-04-22 13:24 53.54167 9.88208 995 ft 104 kts 320°
2026-04-22 13:24 53.54571 9.87310 749 ft 98 kts 294°
2026-04-22 13:25 53.54658 9.86205 441 ft 95 kts 259°
2026-04-22 13:25 53.54359 9.85313 164 ft 82 kts 237°
2026-04-22 13:25 53.54026 9.84623 49 ft 66 kts 239°
2026-04-22 13:25 53.53783 9.84090 16 ft 44 kts 246°
2026-04-22 13:26 53.53665 9.83798 14 ft 16 kts 227°
2026-04-22 13:26 53.53691 9.83711 16 ft 9 kts 341°
2026-04-22 13:26 53.53746 9.83678 16 ft 10 kts 340°
2026-04-22 13:26 53.53838 9.83621 17 ft 11 kts 357°
2026-04-22 13:27 53.53891 9.83681 17 ft 5 kts 121°
2026-04-22 13:27 53.53865 9.83714 17 ft 4 kts 142°
2026-04-22 13:27 53.53863 9.83717 17 ft 0 kts 143°